SB KEPS @ AMSAT $ORB26124.1 2Line Orbital Elements 26124.AMSAT QST de W1STR AMSAT Orbital Elements for Amateur Satellites in TLE Format From Orbital Analysis Office New England Sci-Tech STEM Education Center Natick MA May 04, 2026 To all radio amateurs These element sets describe the orbits of various satellites in use by the amateur radio community. For details see: www.amsat.org/keplerian-elements-formats/ A daily update of element sets is available at: www.amsat.org/tle/daily-bulletin.txt or without bulletin text: www.amsat.org/tle/dailytle.txt AO-07 1 07530U 74089B 26124.00693220 -.00000051 00000-0 -31626-4 0 9990 2 07530 101.9924 136.7900 0012031 213.9863 171.9418 12.53697379354980 UO-11 1 14781U 84021B 26124.18887950 .00001377 00000-0 14612-3 0 9992 2 14781 97.8029 90.2676 0007023 341.2603 18.8356 14.90678493250570 AO-27 1 22825U 93061C 26124.15739454 .00000099 00000-0 54832-4 0 9995 2 22825 98.6897 191.5820 0007583 223.7817 136.2765 14.30930115700708 FO-29 1 24278U 96046B 26124.09716291 -.00000017 00000-0 19721-4 0 9991 2 24278 98.5288 338.9963 0349318 210.7120 147.3158 13.53272278467205 GO-32 1 25397U 98043D 26123.95165178 .00000052 00000-0 42616-4 0 9996 2 25397 99.0063 115.5978 0001459 30.0713 330.0548 14.24419564445033 ISS 1 25544U 98067A 26124.19972499 .00005402 00000-0 10582-3 0 9995 2 25544 51.6306 157.8339 0007307 21.3717 338.7575 15.49085010564935 NO-44 1 26931U 01043C 26124.08660219 .00000139 00000-0 82620-4 0 9991 2 26931 67.0523 358.3361 0006407 263.9964 96.0408 14.31938831284137 SO-50 1 27607U 02058C 26124.12052622 .00001253 00000-0 16486-3 0 9991 2 27607 64.5520 265.3147 0075625 270.5007 88.7434 14.82951109257929 CO-55 1 27844U 03031E 26123.56975645 .00000309 00000-0 15277-3 0 9990 2 27844 98.6751 132.6882 0008724 321.2101 38.8451 14.24307791185320 RS-22 1 27939U 03042A 26124.21696096 .00000807 00000-0 13273-3 0 9997 2 27939 98.3463 307.3364 0012309 52.3082 63.4078 14.73388449209073 CO-65 1 32785U 08021C 26124.22527500 .00005511 00000-0 35213-3 0 9993 2 32785 97.8262 104.7513 0009193 167.9764 192.1685 15.09037194978560 CO-66 1 32791U 08021J 26123.91535554 .00018995 00000-0 63092-3 0 9999 2 32791 97.7525 119.7563 0005110 101.6715 258.5098 15.31250042980512 RS-30 1 32953U 08025A 26124.15743348 .00000042 00000-0 22932-3 0 9994 2 32953 82.5083 22.8268 0020527 48.8179 311.4667 12.43177832814224 SRMSAT 1 37841U 11058D 26123.89204050 .00000422 00000-0 85075-4 0 9997 2 37841 19.9734 327.5811 0011781 76.8420 314.3522 14.11565536751550 ZACUBE-1 1 39417U 13066B 26124.14316745 .00005561 00000-0 43373-3 0 9996 2 39417 97.8130 86.2428 0043172 41.0977 319.3485 15.00838926674124 Delfi-N3xt 1 39428U 13066N 26124.19922418 .00008801 00000-0 77458-3 0 9994 2 39428 97.8357 44.5677 0075088 354.8203 5.2232 14.94565136668056 GOMX-1 1 39430U 13066Q 26124.19435943 .00001840 00000-0 28295-3 0 9990 2 39430 97.6507 327.4294 0127911 218.3181 140.8886 14.69290558663459 LO-74 1 39440U 13066AA 26124.11479588 .00003022 00000-0 28390-3 0 9996 2 39440 97.8882 72.9277 0058093 172.0826 188.1324 14.93442830670412 AO-73 1 39444U 13066AE 26124.16453503 .00008303 00000-0 52258-3 0 9991 2 39444 97.8259 94.7190 0036435 357.0543 3.0465 15.08904484673023 DTUSAT-2 1 40030U 14033W 26123.91142272 .00007949 00000-0 43600-3 0 9995 2 40030 98.0871 118.8509 0008880 37.8443 322.3409 15.14438997645983 LILACSAT-2 1 40908U 15049K 26124.19840920 .00017873 00000-0 31987-3 0 9995 2 40908 97.4704 159.4043 0008422 63.8296 296.3820 15.50007360588930 Horyu-4 1 41340U 16012D 26124.06960086 .00162846 00000-0 10035-2 0 9990 2 41340 30.9901 37.2237 0006262 308.9775 51.0323 15.75564117563814 Lapan A3 1 41603U 16040E 26124.19528258 .00003971 00000-0 12743-3 0 9990 2 41603 97.1489 121.7982 0010780 163.1792 196.9811 15.32823824548076 CAS-2T 1 41847U 16066G 26124.11907089 .00000697 00000-0 10822-3 0 9991 2 41847 98.3828 200.3530 0340898 263.2564 92.9731 14.44578754498435 TechnoSat 1 42829U 17042E 26124.16284699 .00003025 00000-0 21855-3 0 9993 2 42829 97.4247 283.5176 0016051 240.9799 118.9819 15.04692823480082 AO-91 1 43017U 17073E 26124.07543898 .00008974 00000-0 39487-3 0 9994 2 43017 97.4759 352.2102 0154265 120.5821 241.0731 15.11915149458726 S-Net D 1 43186U 18014G 26124.11979377 .00004418 00000-0 23166-3 0 9993 2 43186 97.5396 29.1933 0008766 159.3937 200.7651 15.16259651452085 S-Net B 1 43187U 18014H 26124.19638301 .00004723 00000-0 24755-3 0 9995 2 43187 97.5401 29.2546 0009567 155.6178 204.5509 15.16231433452093 S-Net A 1 43188U 18014J 26124.18488075 .00004450 00000-0 23319-3 0 9998 2 43188 97.5411 29.4439 0009408 156.2013 203.9656 15.16267306452091 S-Net C 1 43189U 18014K 26124.20001772 .00004808 00000-0 25192-3 0 9995 2 43189 97.5428 29.5269 0010986 150.8361 209.3487 15.16222740450645 Ten-Koh 1 43677U 18084G 26124.11291323 .00002029 00000-0 15674-3 0 9994 2 43677 98.0784 314.6259 0007369 264.5792 95.4591 15.02754458409541 PO-101 1 43678U 18084H 26124.15266105 .00002457 00000-0 20134-3 0 9991 2 43678 98.1072 318.4812 0012657 322.9023 37.1323 15.00233724409612 QO-100 1 43700U 18090A 26124.12837883 .00000152 00000-0 00000+0 0 9994 2 43700 0.0166 277.7346 0001582 150.4986 225.8197 1.00270873 27230 MinXSS-2 1 43758U 18099A 26124.19084332 .00033118 00000-0 72355-3 0 9990 2 43758 97.4551 199.2848 0008378 73.4136 286.8031 15.44083802407331 AO-95 1 43770U 18099N 26124.14983439 .00010757 00000-0 42341-3 0 9991 2 43770 97.4410 184.5848 0010187 137.5152 222.6876 15.25761782406509 SNUSat 2 1 43782U 18099AA 26124.13765743 .00007930 00000-0 35824-3 0 9996 2 43782 97.4088 178.2133 0012060 91.9509 268.3108 15.21162873406339 SnugLite 1 43784U 18099AC 26124.09797753 .00012744 00000-0 49464-3 0 9993 2 43784 97.3900 178.8367 0004485 92.2389 267.9363 15.26220717406593 ITASat 1 1 43786U 18099AE 26124.14198156 .00007399 00000-0 36111-3 0 9998 2 43786 97.4059 176.5436 0013924 141.3297 218.8937 15.18490606406224 EAGLET 1 1 43790U 18099AJ 26124.13168182 .00004155 00000-0 24120-3 0 9992 2 43790 97.4265 174.9702 0012554 133.0218 227.2067 15.12603065405670 ESEO 1 43792U 18099AL 26124.07519738 .00001180 00000-0 89252-4 0 9997 2 43792 97.3999 163.3483 0013365 120.2012 240.0540 15.04103836405170 JO-97 1 43803U 18099AX 26124.16417720 .00016335 00000-0 52586-3 0 9995 2 43803 97.4157 186.8881 0007052 76.5568 283.6459 15.32270883406886 Suomi 100 1 43804U 18099AY 26124.13010727 .00012224 00000-0 45710-3 0 9993 2 43804 97.4217 184.7148 0011572 80.3014 279.9531 15.27417283406697 ISAT 1 43879U 18111D 26124.07376064 .00075778 00000-0 98740-3 0 9996 2 43879 97.5908 56.1611 0008733 100.4694 259.7545 15.58436165404285 UWE-4 1 43880U 18111E 26123.71154354 .00033666 00000-0 75050-3 0 9993 2 43880 97.5865 50.1529 0010561 117.4778 242.7545 15.43459915403917 Sparrow 1 43881U 18111F 26124.11670029 .00107453 00000-0 11151-2 0 9998 2 43881 97.6132 61.1728 0007401 119.8212 240.3783 15.64271391404469 Prox-1 1 44339U 19036A 26124.12717321 .00015010 00000-0 15046-2 0 9996 2 44339 23.9963 48.3161 0006415 242.0229 117.9621 14.89578457366894 Taurus 1 1 44530U 19059C 26124.19035167 .00006011 00000-0 97372-3 0 9996 2 44530 98.6380 286.3142 0009703 93.3125 266.9191 14.71618336352172 TO-108 1 44881U 19093C 26124.15573644 .00001169 00000-0 13824-3 0 9995 2 44881 97.7542 197.4598 0012389 228.0753 131.9408 14.86447860344874 RS-44 1 44909U 19096E 26124.14537301 .00000025 00000-0 61451-4 0 9998 2 44909 82.5254 8.9736 0216455 247.2781 110.5313 12.79748004296712 SALSAT 1 46495U 20068K 26123.91868740 .00008278 00000-0 29493-3 0 9996 2 46495 97.8858 124.3127 0011711 97.6650 262.5919 15.29147420308593 CSS (TIANHE-1) 1 48274U 21035A 26124.21223601 .00026092 00000-0 27888-3 0 9993 2 48274 41.4669 229.6452 0005502 327.6559 32.3943 15.63275069286291 CUTE 1 49263U 21088D 26124.21490878 .00080988 00000-0 52564-3 0 9995 2 49263 97.4198 219.8903 0000567 127.4259 232.7057 15.75757317255594 TeikyoSat 4 1 49396U 21102B 26124.03626853 .00002492 00000-0 15964-3 0 9990 2 49396 97.3701 155.2333 0013713 86.3688 273.9109 15.09349608246060 Z-Sat 1 49399U 21102E 26124.23313897 .00005820 00000-0 28886-3 0 9991 2 49399 97.3358 160.8920 0017872 45.1840 315.0844 15.17934510246771 KOSEN 1 1 49402U 21102H 26124.09143609 .00007598 00000-0 29540-3 0 9994 2 49402 97.3221 167.1167 0013784 11.4635 348.6915 15.26232197247295 HO-113 1 50466U 21131B 26124.25041626 .00000653 00000-0 21539-3 0 9997 2 50466 98.4961 216.8836 0003299 215.6978 144.3990 14.41315619228787 SNUGLITE 2 1 52899U 22065F 26123.88822022 .00001065 00000-0 21109-3 0 9992 2 52899 98.2141 268.8145 0008069 154.5779 205.5821 14.64263254204517 UmKA 1 (RS40S) 1 57172U 23091G 26124.20017906 .00005009 00000-0 23329-3 0 9993 2 57172 97.5077 183.0763 0011210 272.6536 87.3416 15.20321415157324 CubeBel-2 (EU11S) 1 57175U 23091K 26124.19396091 .00011930 00000-0 43694-3 0 9996 2 57175 97.5075 187.0480 0008475 268.2956 91.7312 15.28144158157588 RS-38S 1 57189U 23091Z 26124.15349933 .00015934 00000-0 47620-3 0 9991 2 57189 97.5110 192.8008 0006819 216.1907 143.8875 15.34648913157938 SONATE-2 1 59112U 24043Q 26123.92357859 .00036716 00000-0 53469-3 0 9996 2 59112 97.5490 271.7312 0006371 9.5195 350.6178 15.55627102121001 GRBBeta 1 60237U 24128C 26124.14609291 .00003866 00000-0 27034-3 0 9994 2 60237 61.9917 10.7420 0046219 125.4724 235.0695 15.06282662 99639 Curium One 1 60242U 24128H 26124.12997567 .00008949 00000-0 52068-3 0 9996 2 60242 61.9801 1.7332 0045817 122.0556 238.5001 15.11809688 99793 ROBUSTA-3A 1 60243U 24128J 26124.20296103 .00007903 00000-0 47149-3 0 9997 2 60243 61.9879 3.7062 0046903 119.4922 241.0863 15.10994615 99772 CatSat 1 60246U 24125J 26124.15652927 .00044422 00000-0 67559-3 0 9995 2 60246 97.2127 336.2377 0022494 348.8115 11.2636 15.54119952100541 HYPERVIEW-1G (RS66S) 1 61772U 24199AP 26124.16541795 .00089126 00000-0 84651-3 0 9994 2 61772 97.2957 1.9881 0008681 86.5120 273.7133 15.66553229127769 AO-123 1 61781U 24199AY 26124.17218894 .00007701 00000-0 22804-3 0 9997 2 61781 97.3055 353.2475 0015863 105.4935 254.8062 15.35031483127171 JINJUSat 1B 1 63210U 25052A 26123.68801631 .00017597 00000-0 56889-3 0 9991 2 63210 97.4054 20.4217 0001746 207.2293 152.8858 15.32140903 63286 NUSHSAT 1 1 63211U 25052B 26123.66761384 .00023062 00000-0 69620-3 0 9991 2 63211 97.4030 20.8259 0001402 207.3313 152.7856 15.34270965 63319 TEVEL2-4 1 63213U 25052D 26123.94962286 .00018895 00000-0 59276-3 0 9992 2 63213 97.3949 20.3112 0000436 215.4015 144.7198 15.33089088 63332 TEVEL2-5 1 63214U 25052E 26123.96548257 .00018102 00000-0 57072-3 0 9996 2 63214 97.3945 20.2868 0000455 220.0820 140.0389 15.32939087 63336 TEVEL2-6 1 63215U 25052F 26123.97674017 .00018616 00000-0 58752-3 0 9998 2 63215 97.3950 20.2831 0000560 234.5404 125.5786 15.32901134 63339 TEVEL2-1 1 63217U 25052H 26123.66475572 .00019622 00000-0 62866-3 0 9990 2 63217 97.3928 19.6462 0000615 318.5912 41.5283 15.32408504 63271 TEVEL2-3 1 63218U 25052J 26123.66086059 .00019793 00000-0 63316-3 0 9999 2 63218 97.3929 19.6589 0000656 317.0757 43.0434 15.32455232 63274 TEVEL2-2 1 63219U 25052K 26124.12235899 .00018643 00000-0 59705-3 0 9990 2 63219 97.3922 20.1043 0000598 309.9091 50.2098 15.32430831 63348 TEVEL2-9 1 63237U 25052AD 26123.65244849 .00018151 00000-0 61600-3 0 9993 2 63237 97.3989 19.1025 0004454 312.8726 47.2140 15.30558128 63210 TEVEL2-7 1 63238U 25052AE 26124.14305432 .00015189 00000-0 52003-3 0 9990 2 63238 97.3991 19.5251 0004504 310.9067 49.1783 15.30311015 63285 TEVEL2-8 1 63239U 25052AF 26124.15081207 .00015141 00000-0 51869-3 0 9990 2 63239 97.3989 19.5111 0004470 311.9829 48.1031 15.30292862 63280 HYDRA-W 1 63490U 25052BL 26113.93882235 .05662091 24406-5 29537-2 0 9997 2 63490 97.3690 18.2798 0008685 203.5899 156.4993 16.20186780 62336 HADES-ICM (SO-125) 1 63492U 25052BN 26124.15808949 .00532026 00000-0 22419-2 0 9995 2 63492 97.3803 27.5241 0006071 158.8991 201.2530 15.84117278 63839 SPIRONE 1 66657U 25274H 26123.76658439 .00002520 00000-0 24524-3 0 9991 2 66657 97.7479 53.7025 0012705 154.7688 205.4155 14.93366038 23595 K-HERO 1 66660U 25274L 26124.05167843 .00001593 00000-0 15537-3 0 9995 2 66660 97.7481 54.1114 0014397 159.7786 200.4007 14.93794107 23648 SNUGLITE-III DURI 1 66661U 25274M 26124.04091171 .00001587 00000-0 15454-3 0 9996 2 66661 97.7479 54.1196 0014999 160.7167 199.4624 14.93852515 23649 SilverSat 1 66909U 98067XV 26113.44966717 .07226154 12288-4 11979-2 0 9998 2 66909 51.6027 190.0749 0007952 333.4666 26.5949 16.32457272 22308 SAKHACUBE-CHOLBON 1 67290U 25313AU 26124.18214453 .00009217 00000-0 38181-3 0 9994 2 67290 97.3941 199.7923 0010560 145.0140 215.1793 15.24080997 19278 RS95S (QMR-KWT-2) 1 67291U 25313AV 26124.13996091 .00014232 00000-0 56945-3 0 9996 2 67291 97.3942 199.8464 0010320 144.5455 215.6471 15.25139313 19274 Ten-Koh2 1 68261U 25241B 26124.13505715 .00006504 00000-0 28376-3 0 9993 2 68261 51.6494 169.2136 0005958 3.8543 356.2479 15.23335867 8199 JACK-002 1 68417U 26067B 26123.76478452 .00008383 00000-0 40550-3 0 9993 2 68417 97.4546 82.9339 0004050 82.4218 277.7476 15.18840495 5203 DISCO 2 1 68431U 26067R 26123.64315794 .00006340 00000-0 31127-3 0 9996 2 68431 97.4583 82.8073 0003752 123.3891 236.7702 15.18418126 5180 HADES-SA (SpinnyONE) 1 68446U 26067AG 26123.86700165 .00018231 00000-0 90835-3 0 9999 2 68446 97.4392 82.8883 0005604 210.2586 149.8325 15.17602110 5203 PARUS-6U1 1 68456U 26067AS 26123.40846113 .00006278 00000-0 32051-3 0 9998 2 68456 97.4532 82.4874 0004690 200.2700 159.8348 15.17051787 5144 SAL-E 1 68458U 26067AU 26123.87007302 .00008068 00000-0 40987-3 0 9996 2 68458 97.4459 82.9104 0004634 209.2077 150.8898 15.17133115 5214 FSI-SAT 2 1 68792U 26088A 26115.68414791 .00000849 00000-0 61705-4 0 9995 2 68792 97.4990 266.2992 0012809 287.5176 72.4651 15.06389719 389 OrigamiSat 2 1 68795U 26088D 26113.82356135 .00001590 00000-0 10758-3 0 9994 2 68795 97.5008 264.4888 0014430 266.4157 93.5420 15.07861282 103 ARICA 2 1 68796U 26088E 26113.82352201 .00001593 00000-0 10752-3 0 9992 2 68796 97.4989 264.4863 0014541 264.6248 95.3321 15.07951070 103 WASEDA-SAT-ZERO-II 1 68797U 26088F 26113.82350997 .00001596 00000-0 10767-3 0 9992 2 68797 97.5012 264.4822 0014814 262.4592 97.4954 15.07975758 102 MANGARO-II-Piscus 1 68798U 26088G 26113.82334568 .00001591 00000-0 10611-3 0 9992 2 68798 97.4999 264.4888 0017891 266.9056 93.0125 15.08353756 101 IO-86 1 40931U 25360.30710720 .00000000 00000-0 12800-3 0 00 2 40931 6.0006 332.5373 0012733 338.8432 8.1437 14.79075515 01 LILIUM-4 1 71922C 26067AC 26089.50133053 -.00014632 00000+0 -74472-3 0 04 2 71922 97.4497 49.1617 0004341 5.9603 355.7042 15.16896692 16 /EX